AirNav   ProFlight Series 2 Aviation Headset
 
 1406 users online  

33S Pru Field Airport
Ritzville, Washington, USA

GOING TO RITZVILLE?


FAA INFORMATION EFFECTIVE 18 JUNE 2020

Location

FAA Identifier: 33S
Lat/Long: 47-07-24.4300N 118-23-21.5800W
47-07.407167N 118-23.359667W
47.1234528,-118.3893278
(estimated)
Elevation: 1801 ft. / 548.9 m (surveyed)
Variation: 19E (1985)
From city: 1 mile W of RITZVILLE, WA
Time zone: UTC -7 (UTC -8 during Standard Time)
Zip code: 99169

Airport Operations

Airport use: Open to the public
Activation date: 10/1945
Control tower: no
ARTCC: SEATTLE CENTER
FSS: SEATTLE FLIGHT SERVICE STATION
NOTAMs facility: SEA (NOTAM-D service available)
Attendance: UNATNDD
Wind indicator: lighted
Segmented circle: no
Lights: ACTVT MIRL RY 01/19 AND PAPI RYS 01 & 19 - CTAF.
Beacon: white-green (lighted land airport)
Operates sunset to sunrise.

Airport Communications

CTAF/UNICOM: 122.8

Nearby radio navigation aids

VOR radial/distance  VOR name  Freq  Var
MWHr080/38.2MOSES LAKE VOR/DME115.0018E

Airport Services

Parking: tiedowns
Airframe service: NONE
Powerplant service: NONE
Bottled oxygen: NONE
Bulk oxygen: NONE

Runway Information

Runway 1/19

Dimensions: 3433 x 40 ft. / 1046 x 12 m
Surface: asphalt, in good condition
Weight bearing capacity: 
Single wheel: 12.5
Runway edge lights: medium intensity
RUNWAY 1  RUNWAY 19
Latitude: 47-07.157500N47-07.657000N
Longitude: 118-23.552833W118-23.166500W
Elevation: 1783.0 ft.1801.0 ft.
Traffic pattern: leftleft
Runway heading: 009 magnetic, 028 true189 magnetic, 208 true
Displaced threshold: no820 ft.
Declared distances: TORA:2614 TODA:2614 ASDA:3433 LDA:3433TORA:3433 TODA:3433 ASDA:3433 LDA:2614
Markings: basic, in good conditionbasic, in good condition
Visual slope indicator: 2-light PAPI on left (4.00 degrees glide path)2-light PAPI on right (3.50 degrees glide path)
Touchdown point: yes, no lightsyes, no lights
Obstructions: 27 ft. pline, 1282 ft. from runway, 69 ft. right of centerline, 39:1 slope to clear48 ft. tree, 540 ft. from runway, 32 ft. right of centerline, 7:1 slope to clear

Airport Ownership and Management from official FAA records

Ownership: Publicly-owned
Owner: CITY OF RITZVILLE
216 E. MAIN
RITZVILLE, WA 99169-1417
Phone 509-659-1930
Manager: LARRY SWIFT
216 E. MAIN
RITZVILLE, WA 99169-1417
Phone 509-659-1930

Airport Operational Statistics

Aircraft based on the field: 1
Single engine airplanes: 1
    
Aircraft operations: avg 119/week *
79% transient general aviation
21% local general aviation
* for 12-month period ending 31 December 2018

Additional Remarks

ARPT CLSD WHEN SNOW/ICE ON RY.
FOR CD CTC GRANT COUNTY APCH AT 509-762-2842, WHEN APCH CLSD CTC SEATTLE ARTCC AT 253-351-3694.

Instrument Procedures

There are no published instrument procedures at 33S.

Some nearby airports with instrument procedures:

KMWH - Grant County International Airport (38 nm W)
2S8 - Wilbur Airport (40 nm N)
KSKA - Fairchild Air Force Base (42 nm NE)
KGEG - Spokane International Airport (46 nm NE)
KEPH - Ephrata Municipal Airport (47 nm W)
 
Loc | Ops | Rwys | IFR | FBO | Links
Com | Nav | Svcs | Stats | Notes
Area around 33S (Pru Field Airport)
 
Road maps at: MapQuest Bing Google
 
Aerial photo
WARNING: Photo may not be current or correct
Aerial photo of 33S (Pru Field Airport)
Photo by David Wyatt
Photo taken 22-Jun-2007

Do you have a better or more recent aerial photo of Pru Field Airport that you would like to share? If so, please send us your photo.

 
Sectional chart

 
Airport distance calculator
Flying to Pru Field Airport? Find the distance to fly.

From to 33S

Sunrise and sunset
Times for 14-Jul-2020
 Local
(UTC-7)
 Zulu
(UTC)
Morning civil twilight04:3611:36
Sunrise05:1412:14
Sunset20:4503:45
Evening civil twilight21:2304:23

Current date and time
Zulu (UTC)  14-Jul-2020 19:39:59
Local (UTC-7)  14-Jul-2020 12:39:59
 
METAR
KMWH 
38nm W 
141852Z 21006KT 10SM CLR 28/03 A3010 RMK AO2 SLP187 T02780033
KSKA 
42nm NE 
141858Z 22005KT 10SM CLR 26/02 A3014 RMK AO2A SLP198 T02610021 $
KGEG 
46nm NE 
141853Z VRB04KT 10SM FEW055 FEW080 FEW130 24/02 A3014 RMK AO2 SLP193 T02390022
KEPH 
47nm W 
141853Z AUTO 26006KT 10SM CLR 27/04 A3009 RMK AO2 SLP183 T02670039
TAF
KMWH 
38nm W 
141720Z 1418/1518 VRB03KT P6SM SKC FM142000 20007KT P6SM SKC FM150700 32004KT P6SM SKC FM151700 26005KT P6SM SKC
KSKA 
42nm NE 
141100Z 1411/1517 VRB06KT 9999 SKC QNH3004INS BECMG 1417/1418 28012KT 9999 FEW200 QNH3002INS WND VRB06KT AFT 1506 TX27/1423Z TN13/1412Z
KGEG 
46nm NE 
141720Z 1418/1518 VRB04KT P6SM FEW200 FM141900 24008G15KT P6SM FEW060 FM150100 20006KT P6SM SCT200 FM150900 15005KT P6SM FEW200 FM151700 19006KT P6SM FEW200
NOTAMs
Click for the latest NOTAMs
NOTAMs are issued by the DoD/FAA and will open in a separate window not controlled by AirNav.

 

 
 

Would you like to see your business listed on this page?

 If your business provides an interesting product or service to pilots, flight crews, aircraft, or users of the Pru Field Airport, you should consider listing it here.  To start the listing process, click on the button below
 
Add a business
 

Other Pages about Pru Field Airport

Update a link
 
Copyright © AirNav, LLC. All rights reserved. Privacy Policy  Contact